"Pseudo-MPEC" for CER1G32

Created 2026 Sep 5 10:35:07 UT using Find_Orb

Click here for an explanation of pseudo-MPECs

 
 Astrometry: 
     CER1G32*1C2026 09 05.12172620 35 26.490+01 35 20.90   ~953o 20.28GVNEOCPG96
     CER1G32 1C2026 09 05.12730720 35 28.700+01 34 40.40   ~953o 20.49GVNEOCPG96
     CER1G32 1C2026 09 05.13848320 35 33.120+01 33 18.10   ~953o 20.45GVNEOCPG96
     CER1G32 1C2026 09 05.16998220 35 45.474+01 29 26.63   ~954K 21.32GVNEOCPV06
     CER1G32 1C2026 09 05.17026620 35 45.582+01 29 24.54   ~954K 20.78GVNEOCPV06
     CER1G32 1C2026 09 05.17055220 35 45.697+01 29 22.45   ~954K 20.72GVNEOCPV06
     CER1G32 1C2026 09 05.17083820 35 45.798+01 29 20.62   ~954K       VNEOCPV06
     CER1G32 1C2026 09 05.20394020 35 58.650+01 25 16.82   ~9555 20.60GVNEOCPV06
     CER1G32 1C2026 09 05.20462120 35 58.906+01 25 11.86   ~9555 21.10GVNEOCPV06
     CER1G32 1C2026 09 05.20530020 35 59.183+01 25 06.60   ~9555 21.10GVNEOCPV06
     CER1G32 1C2026 09 05.20598220 35 59.442+01 25 01.74   ~9555 20.68GVNEOCPV06
     CER1G32 !C2026 09 05.26765020 36 24.713+01 17 22.67   ~956o 18.5 GWNEOCP673
     CER1G32 !C2026 09 05.27207220 36 26.434+01 16 50.20   ~956o 20.4 GWNEOCP673

Station data:
(673) Table Mountain Observatory, Wrightwood  (N34.381485 W117.682170)
   US/California.  Observers J. Chesley, J. Pittichova. Measurer W. M. Owen
   Jr. 0.61-m f/16 reflector + CCD.
(G96) Mt. Lemmon Survey  (N32.442729 W110.788720)
   US/Arizona.  Observer E. J. Christensen. Measurers T. Beuden, V. F.
   Carvajal, D. Fay, J. B. Fazekas, D. C. Fuls, A. R. Gibbs, A. D. Grauer, H.
   Gröller, J. K. Hogan, R. A. Kowalski, S. M. Larson, G. J. Leonard, D.
   Rankin, R. L. Seaman, F. C. Shelly, K. W. Wierzchoś. 1.5-m reflector + 10K
   CCD.
(V06) Catalina Sky Survey-Kuiper  (N32.416871 W110.732550)  US/Arizona.
   Measurers T. Beuden, V. F. Carvajal, D. Fay, J. B. Fazekas, D. C. Fuls, A.
   R. Gibbs, A. D. Grauer, H. Gröller, J. K. Hogan, R. A. Kowalski, S. M.
   Larson, G. J. Leonard, D. Rankin, R. L. Seaman, F. C. Shelly, K. W.
   Wierzchoś. 1.55-m reflector + CCD.

Orbital elements:  CER1G32
   Perihelion 2026 Aug 7.578688 +/- 17.4 TT = 13:53:18.6 (JD 2461260.078688)
Epoch 2026 Sep  5.0 TT = JDT 2461288.5   Earth MOID: 0.0405      AutoNEOCP
M  22.633785183 +/- 14              (J2000 ecliptic)
n   0.796366668 +/- 0.0383          Peri.  143.808119 +/- 17
a   1.152729301 +/- 0.0369          Node   169.312055 +/- 0.56
e   0.10185863 +/- 0.0174           Incl.    5.901791 +/- 0.6
P   1.238/452.045d         H 25.96  G  0.15   U 10.6
q 1.035313871 +/- 0.0132    Q 1.270144731 +/- 0.0607
From 13 observations 2026 Sept. 5 (3.6 hr); mean residual 0".13
Residuals in arcseconds: 
260905 G96  .01+  .31-    260905 V06  .19+  .05+    260905 V06  .04-  .08-    
260905 G96  .09-  .20+    260905 V06  .04+  .33+    260905 673  .05+  .03-    
260905 G96  .10-  .03+    260905 V06  .05-  .02-    260905 673  .07-  .03+    
260905 V06  .18+  .04+    260905 V06  .17-  .03+    
260905 V06  .14+  .04+    260905 V06  .04+  .24-    

Ephemerides (geocentric):
Date (UTC) HH   RA             Dec           delta  r     elong  mag " sig PA
---- --------  ------------   ------------  ------ ------ -----  --- --------
2026 09 05 11  20 37 53.687   +00 55 45.33  .04672 1.0468 144.8 20.8 11.2  38
2026 09 05 12  20 38 12.576   +00 50 39.99  .04674 1.0468 144.8 20.8 12.6  36
2026 09 05 13  20 38 31.459   +00 45 34.83  .04676 1.0468 144.9 20.8 14.0  33
2026 09 05 14  20 38 50.335   +00 40 29.86  .04677 1.0469 145.0 20.8 15.6  31
2026 09 05 15  20 39 09.206   +00 35 25.06  .04679 1.0469 145.0 20.8 17.3  27
2026 09 05 16  20 39 28.069   +00 30 20.46  .04681 1.0469 145.1 20.8 19.1  24
2026 09 05 17  20 39 46.927   +00 25 16.05  .04683 1.0470 145.1 20.8 21.1  21
2026 09 05 18  20 40 05.777   +00 20 11.83  .04684 1.0470 145.2 20.8 23.2  17
2026 09 05 19  20 40 24.621   +00 15 07.81  .04686 1.0470 145.3 20.8 25.6  14
2026 09 05 20  20 40 43.459   +00 10 03.99  .04688 1.0471 145.3 20.8 28.2  11
2026 09 05 21  20 41 02.289   +00 05 00.38  .04690 1.0471 145.4 20.8 31.0   8
2026 09 05 22  20 41 21.113   -00 00 03.02  .04692 1.0471 145.4 20.8 34.1   5
2026 09 05 23  20 41 39.930   -00 05 06.21  .04694 1.0472 145.5 20.8 37.4   3
2026 09 06 00  20 41 58.740   -00 10 09.19  .04696 1.0472 145.6 20.8 40.9   0
2026 09 06 01  20 42 17.543   -00 15 11.94  .04698 1.0472 145.6 20.8 44.7 178
2026 09 06 02  20 42 36.338   -00 20 14.47  .04700 1.0473 145.7 20.8 48.7 176
2026 09 06 03  20 42 55.127   -00 25 16.78  .04702 1.0473 145.7 20.8 53.0 174
2026 09 06 04  20 43 13.908   -00 30 18.86  .04704 1.0473 145.8 20.8 57.6 172
2026 09 06 05  20 43 32.681   -00 35 20.70  .04706 1.0474 145.9 20.8 62.4 171
2026 09 06 06  20 43 51.447   -00 40 22.31  .04708 1.0474 145.9 20.8 67.4 169
2026 09 06 07  20 44 10.206   -00 45 23.68  .04710 1.0474 146.0 20.8 72.7 168
2026 09 06 08  20 44 28.957   -00 50 24.80  .04712 1.0474 146.0 20.8 78.3 166
2026 09 06 09  20 44 47.701   -00 55 25.68  .04714 1.0475 146.1 20.8 84.1 165
2026 09 06 10  20 45 06.436   -01 00 26.31  .04716 1.0475 146.1 20.8 90.2 164
2026 09 06 11  20 45 25.164   -01 05 26.69  .04718 1.0475 146.2 20.8 96.5 163
2026 09 06 12  20 45 43.884   -01 10 26.81  .04721 1.0476 146.3 20.8  103 162
2026 09 06 13  20 46 02.596   -01 15 26.67  .04723 1.0476 146.3 20.8  110 161
2026 09 06 14  20 46 21.300   -01 20 26.27  .04725 1.0476 146.4 20.8  117 160
2026 09 06 15  20 46 39.995   -01 25 25.60  .04727 1.0477 146.4 20.8  124 159
2026 09 06 16  20 46 58.683   -01 30 24.66  .04730 1.0477 146.5 20.8  132 159
2026 09 06 17  20 47 17.362   -01 35 23.46  .04732 1.0477 146.5 20.8  139 158
2026 09 06 18  20 47 36.033   -01 40 21.97  .04734 1.0478 146.6 20.8  147 157
2026 09 06 19  20 47 54.696   -01 45 20.21  .04737 1.0478 146.6 20.8  156 157
2026 09 06 20  20 48 13.350   -01 50 18.16  .04739 1.0478 146.7 20.8  164 156
2026 09 06 21  20 48 31.995   -01 55 15.83  .04741 1.0479 146.8 20.8  173 155
2026 09 06 22  20 48 50.632   -02 00 13.21  .04744 1.0479 146.8 20.8  182 155
2026 09 06 23  20 49 09.260   -02 05 10.30  .04746 1.0480 146.9 20.8  191 154
2026 09 07 00  20 49 27.880   -02 10 07.10  .04749 1.0480 146.9 20.8  200 154
2026 09 07 01  20 49 46.491   -02 15 03.59  .04751 1.0480 147.0 20.8  210 153
2026 09 07 02  20 50 05.092   -02 19 59.79  .04754 1.0481 147.0 20.8  220 153
2026 09 07 03  20 50 23.685   -02 24 55.68  .04756 1.0481 147.1 20.8  230 153
2026 09 07 04  20 50 42.269   -02 29 51.27  .04759 1.0481 147.1 20.8  240 152
2026 09 07 05  20 51 00.843   -02 34 46.54  .04761 1.0482 147.2 20.8  251 152
2026 09 07 06  20 51 19.409   -02 39 41.50  .04764 1.0482 147.2 20.8  261 152
2026 09 07 07  20 51 37.965   -02 44 36.15  .04766 1.0482 147.3 20.8  272 151
2026 09 07 08  20 51 56.512   -02 49 30.47  .04769 1.0483 147.3 20.8  284 151
2026 09 07 09  20 52 15.049   -02 54 24.48  .04772 1.0483 147.4 20.8  295 151
2026 09 07 10  20 52 33.577   -02 59 18.15  .04774 1.0483 147.4 20.8  307 150